User: anonymous   Login
Location: Unspecified
(0.0000°N, 0.0000°E)
Time: 12:52:18
(UTC+00:00)
Language:

HAVELSAT - Orbit

View from above orbital plane
View from above orbital plane
View from above satellite
View from above satellite

Ground track
Ground track

The orbit data is extracted from the following two-line orbital elements,

1 42700U 98067LH  18347.73799445  .00077941  00000-0  28802-3 0  9995
2 42700  51.6253 147.7852 0004357 233.1340 126.9266 15.87458602 90362
Epoch (UTC): 13 December 2018 17:42:42
Eccentricity: 0.0004357
inclination: 51.6253°
perigee height: 306 km
apogee height: 312 km
right ascension of ascending node: 147.7852°
argument of perigee: 233.1340°
revolutions per day: 15.87458602
mean anomaly at epoch: 126.9266°
orbit number at epoch: 9036

The dashed part of the orbit path shows where the satellite is in the earth's shadow,  

DLR